Kalamazoo, MI

12:51 AM EDT on September 23, 2017 (GMT -0400)
Kalamazoo-Battle Creek International

Weather History for KAZO - January, 2007

Change the Weather History Date:

Tuesday, January 16, 2007

  Actual Average Record
Temperature  
Mean Temperature 20 °F 24 °F  
Max Temperature 24 °F 31 °F 56 °F (1949)
Min Temperature 16 °F 18 °F -18 °F (1982)
Degree Days  
Heating Degree Days 45 41  
Month to date heating degree days 648  
Since 1 July heating degree days 3099  
Cooling Degree Days 0 0  
Month to date cooling degree days 0  
Year to date cooling degree days 0  
Moisture  
Dew Point 15 °F    
Average Humidity 78    
Maximum Humidity 89    
Minimum Humidity 62    
Precipitation  
Precipitation 0.00 in 0.05 in 0.53 in (2012)
Month to date precipitation 0.91  
Year to date precipitation 0.91  
Snow  
Snow 0.00 in - - ()
Snow Depth 2.00 in    
Sea Level Pressure  
Sea Level Pressure 30.42 in    
Wind  
Wind Speed 6 mph (NNW)    
Max Wind Speed 10 mph    
Max Gust Speed -    
Visibility 10 miles    
Events Snow    
T = Trace of Precipitation, MM = Missing Value Source: NWS Daily Summary

Daily Weather History Graph

Daily Weather History Graph

Search for Another Location

Airport or City:

Trip Planner

Search our weather history database for the weather conditions in past years. The results will help you decide how hot, cold, wet, or windy it might be!

Date:

Astronomy

Jan. 16, 2007 Rise Set
Actual Time 8:08 AM EST 5:36 PM EST
Civil Twilight 7:37 AM EST 6:07 PM EST
Nautical Twilight 7:02 AM EST 6:41 PM EST
Astronomical Twilight 6:29 AM EST 7:15 PM EST
Moon 6:21 AM EST (1/16) 2:44 PM EST (1/16)
Length of Visible Light 10h 29m
Length of Day
9h 28m
Waning Crescent, 7% of the Moon is Illuminated
Jan 16
Waning Crescent
Jan 18
New
Jan 25
First Quarter
Feb 2
Full
Feb 10
Last Quarter

Hourly Weather History & Observations

Time (EST) Temp. Windchill Dew Point Humidity Pressure Visibility Wind Dir Wind Speed Gust Speed Precip Events Conditions
12:53 AM 23.0 °F 14.7 °F 19.9 °F 88% 30.14 in 10.0 mi North 6.9 mph - N/A   Overcast
1:02 AM 23.0 °F 13.9 °F 19.4 °F 86% 30.14 in 10.0 mi North 8.1 mph - N/A   Overcast
1:53 AM 23.0 °F 12.4 °F 19.0 °F 85% 30.20 in 10.0 mi NNW 10.4 mph - N/A   Overcast
2:25 AM 21.2 °F 12.6 °F 17.6 °F 86% 30.16 in 10.0 mi NNW 6.9 mph - N/A   Overcast
2:43 AM 21.2 °F 11.7 °F 17.6 °F 86% 30.17 in 10.0 mi NNW 8.1 mph - N/A   Mostly Cloudy
2:53 AM 19.9 °F 13.4 °F 17.1 °F 89% 30.22 in 10.0 mi NNW 4.6 mph - N/A   Mostly Cloudy
3:53 AM 19.0 °F 9.0 °F 16.0 °F 88% 30.25 in 10.0 mi NNW 8.1 mph - N/A   Overcast
4:53 AM 18.0 °F 11.1 °F 14.0 °F 84% 30.27 in 10.0 mi North 4.6 mph - N/A   Scattered Clouds
5:53 AM 17.1 °F 6.6 °F 12.0 °F 81% 30.30 in 10.0 mi North 8.1 mph - N/A   Mostly Cloudy
6:53 AM 17.1 °F 6.6 °F 12.9 °F 84% 30.34 in 10.0 mi North 8.1 mph - N/A   Partly Cloudy
7:53 AM 16.0 °F 7.4 °F 10.9 °F 81% 30.38 in 10.0 mi North 5.8 mph - N/A   Partly Cloudy
8:53 AM 16.0 °F 7.4 °F 10.9 °F 81% 30.41 in 10.0 mi NNE 5.8 mph - N/A   Partly Cloudy
9:53 AM 18.0 °F 8.7 °F 10.0 °F 71% 30.44 in 10.0 mi NNE 6.9 mph - N/A   Partly Cloudy
10:53 AM 19.9 °F 11.1 °F 12.0 °F 71% 30.47 in 10.0 mi NNE 6.9 mph - N/A   Partly Cloudy
11:53 AM 21.0 °F 10.6 °F 12.0 °F 68% 30.49 in 10.0 mi NNE 9.2 mph - N/A   Partly Cloudy
12:53 PM 21.9 °F 12.5 °F 12.9 °F 68% 30.50 in 10.0 mi North 8.1 mph - N/A   Partly Cloudy
1:53 PM 23.0 °F 15.8 °F 14.0 °F 68% 30.49 in 10.0 mi NNE 5.8 mph - N/A   Scattered Clouds
2:29 PM 23.0 °F - 15.8 °F 74% 30.44 in 10.0 mi Calm Calm - N/A   Mostly Cloudy
2:53 PM 23.0 °F - 15.1 °F 72% 30.49 in 10.0 mi Calm Calm - N/A   Mostly Cloudy
3:53 PM 24.1 °F 19.7 °F 12.9 °F 62% 30.51 in 10.0 mi NNW 3.5 mph - N/A   Mostly Cloudy
4:53 PM 21.9 °F 13.4 °F 14.0 °F 72% 30.55 in 10.0 mi NW 6.9 mph - N/A   Mostly Cloudy
5:53 PM 21.9 °F 15.7 °F 15.1 °F 75% 30.58 in 10.0 mi WNW 4.6 mph - N/A   Mostly Cloudy
6:53 PM 21.9 °F 13.4 °F 16.0 °F 78% 30.61 in 9.0 mi NW 6.9 mph - 0.00 in Snow Light Snow
7:53 PM 21.9 °F 14.5 °F 17.1 °F 82% 30.63 in 9.0 mi WNW 5.8 mph - 0.00 in Snow Light Snow
8:53 PM 21.9 °F 17.2 °F 17.1 °F 82% 30.65 in 10.0 mi West 3.5 mph - 0.00 in   Mostly Cloudy
9:53 PM 21.0 °F 14.6 °F 16.0 °F 81% 30.66 in 10.0 mi NW 4.6 mph - N/A   Mostly Cloudy
10:53 PM 19.9 °F - 12.9 °F 74% 30.65 in 10.0 mi Calm Calm - N/A   Mostly Cloudy
11:53 PM 19.0 °F - 14.0 °F 81% 30.66 in 10.0 mi Calm Calm - N/A   Mostly Cloudy